Location: Dennehotso
(36.8461°N, 109.8435°W)
Time: 21:33:37
(UTC+00:00)

ISS - Pass Details

Date: 13 March 2021
Orbit: 418 x 422 km, 51.6° (Epoch: 16 April)

Event Time Altitude Azimuth Distance (km) Brightness Sun altitude
Exits shadow 11:49:06 66° 107° (ESE) 459 -3.5 -21.4°
Drops below altitude 10° 11:52:03 10° 128° (SE) 1,488 -0.5 -20.9°
Sets 11:54:08 0° 129° (SE) 2,349 0.6 -20.4°
